Flag for U.S.A. Weather past 2 weeks in Fort Myers, Florida, U.S.A.

Now
77 °F

Sunny.


Feels Like: 78 °F
Forecast: 73 / 83 °F
Wind: 3 mph from Southeast

Location: Page Field

Current Time: Sep 22, 2014 at 10:47:01 AM

Latest Report: Sep 22, 2014 at 9:53 AM


Visibility: 10 mi

Pressure: 30.05 "Hg

Humidity: 90%

Dew point: 74 °F

Location of Fort MyersLocation

Historic Weather in Fort Myers — Graph

°F

Fort Myers temperature yesterday

Maximum temperature yesterday: 88 °F (at 2:53 PM)
Minimum temperature yesterday: 75 °F (at 12:53 AM)
Average temperature yesterday: 79 °F

Past Weeks' High & Low Weather Summary

 TemperatureHumidityPressure
High94 °F (Sep 15, 3:53 PM)100% (Sep 11, 3:53 AM)30.16 "Hg (Sep 11, 3:53 AM)
Low72 °F (Sep 15, 6:53 AM)39% (Sep 13, 3:53 PM)29.86 "Hg (Sep 18, 5:53 PM)
Average79 °F84%29.99 "Hg
* Reported Sep 7 8:53 AM — Sep 22 8:53 AM, Fort Myers, Weather by CustomWeather, © 2014

Note: Actual official high and low records may vary slightly from our data, if they occured in-between our weather recording intervals... More about our weather records

Advertising

Fort Myers weather history for previous 24 hours

 ConditionsComfort  
Time TempWeatherWind HumidityBarometerVisibility
8:53 AM
Sep 22
76 °FSunny.3 mph97%30.03 "Hg10 mi
7:53 AM75 °FClear.No wind96%30.02 "Hg10 mi
6:53 AM75 °FClear.No wind96%30.01 "Hg10 mi
5:53 AM74 °FClear.No wind100%29.99 "Hg10 mi
4:53 AM74 °FClear.No wind100%29.98 "Hg10 mi
3:53 AM74 °FClear.No wind100%29.97 "Hg10 mi
2:53 AM74 °FClear.No wind97%29.98 "Hg10 mi
1:53 AM75 °FClear.6 mph94%29.99 "Hg10 mi
12:53 AM75 °FClear.5 mph96%30.01 "Hg10 mi
11:53 PM
Sep 21
75 °FClear.3 mph96%30.03 "Hg10 mi
10:53 PM76 °FClear.5 mph91%30.04 "Hg10 mi
9:53 PM76 °FClear.5 mph91%30.03 "Hg10 mi
9:01 PM78 °FPassing clouds.6 mph84%30.01 "Hg10 mi
7:53 PM79 °FPassing clouds.5 mph82%29.98 "Hg10 mi
6:53 PM80 °FSunny.5 mph81%29.98 "Hg10 mi
5:53 PM81 °FSunny.7 mph74%29.96 "Hg10 mi
4:53 PM85 °FSunny.10 mph65%29.96 "Hg10 mi
3:53 PM87 °FPassing clouds.5 mph61%29.96 "Hg10 mi
2:53 PM88 °FSunny.12 mph59%29.96 "Hg10 mi
1:53 PM87 °FScattered clouds.9 mph63%29.98 "Hg10 mi
12:53 PM84 °FSunny.3 mph74%29.99 "Hg10 mi
11:53 AM80 °FMostly cloudy.6 mph85%30.01 "Hg10 mi
10:53 AM79 °FSunny.3 mph88%30.01 "Hg10 mi
Weather by CustomWeather, © 2014

See weather overviewHow to use our weather pages